Location: Arras
(42.9833°N, 0.1333°W)
Time: 19:18:42
(UTC+00:00)

Daily predictions for brighter satellites

Satellite Brightness Start Highest point End
(mag) Time Altitude Azimuth Time Altitude Azimuth Time Altitude Azimuth
Cosmos 2360 Rocket 2.9 17:16:58 10° NNW 17:22:32 61° WSW 17:28:03 10° S
Cosmos 2228 4.0 17:19:45 10° NNW 17:23:57 52° W 17:28:07 10° S
Cosmos 2150 Rocket 4.0 17:19:46 10° S 17:24:53 66° ESE 17:30:00 10° NNE
Cosmos 2227 Rocket 3.9 17:25:25 10° SE 17:28:10 14° E 17:30:56 10° ENE
CZ-4 R/B 2.6 17:25:42 10° ESE 17:28:46 21° ENE 17:31:53 10° NNE
COSMOS 2428 2.9 17:23:25 10° NNW 17:29:02 53° ENE 17:34:37 10° SE
Cosmos 2219 Rocket 2.3 17:25:15 10° NNW 17:30:51 56° ENE 17:36:24 10° SE
SKYMED 2 4.4 17:29:33 10° NNE 17:33:26 31° E 17:37:18 10° SSE
Cosmos 2184 Rocket 4.0 17:27:47 10° S 17:33:57 77° E 17:40:08 10° N
USA 234 3.7 17:27:45 10° SE 17:34:14 69° SW 17:40:46 10° NW
Cosmos 2154 Rocket 4.1 17:35:43 10° SSE 17:41:50 56° E 17:47:56 10° NNE
Cosmos 1125 Rocket 3.6 17:39:01 10° S 17:44:03 54° ESE 17:49:07 10° NNE
Cosmos 1812 Rocket 3.9 17:42:03 10° N 17:46:19 43° ENE 17:50:34 10° SSE
YAOGAN 1 3.3 17:49:22 10° SE 17:53:12 31° ENE 17:57:02 10° N
Envisat 3.1 17:51:55 10° SSE 17:57:00 85° WSW 18:02:07 10° NNW
Alouette 2 Rocket 4.5 17:53:29 10° NNW 17:58:15 81° W 18:05:37 10° S
Cosmos 1610 Rocket 4.4 17:52:09 10° S 17:58:16 80° E 18:04:26 10° N
Cosmos 1269 Rocket 4.4 17:56:25 10° N 18:01:22 39° ENE 18:06:19 10° SE
CSL-04 Debris 4.4 18:00:36 10° SE 18:05:42 45° ENE 18:10:50 10° N
Cosmos 1048 Rocket 4.0 18:01:06 10° NNW 18:06:16 85° WSW 18:11:22 10° SSE
Cosmos-2242 3.9 18:03:30 10° NNE 18:07:14 27° ENE 18:10:55 10° SE
CZ-4C R/B 2.9 18:00:51 10° NNW 18:08:07 72° NE 18:16:23 10° SE
Cosmos 1295 Rocket 4.5 18:02:55 10° S 18:09:12 69° E 18:15:29 10° NNE
CZ-2D R/B 3.9 18:06:02 10° SE 18:09:25 31° ENE 18:12:50 10° N
Starlink AQ 4.1 18:09:13 10° W 18:11:50 30° NNW 18:13:16 19° NNE
Cosmos 1602 Rocket 3.7 18:07:40 10° S 18:12:05 79° W 18:16:28 10° N
ISS -1.6 18:10:45 10° SSE 18:12:21 13° SE 18:12:26 13° SE
Starlink AR 4.2 18:10:51 10° W 18:12:59 24° NNW 18:13:57 19° N
Starlink AS 4.2 18:11:47 10° W 18:14:23 28° NNW 18:15:42 20° NNE
Starlink BA 4.2 18:12:00 10° W 18:14:35 28° NNW 18:15:54 20° NNE
Starlink AU 4.2 18:12:13 10° W 18:14:48 28° NNW 18:16:06 20° NNE
Meteor 2-10 Rocket 4.2 18:10:17 10° N 18:15:02 30° ENE 18:19:35 10° SE
Starlink AT 4.2 18:12:27 10° W 18:15:02 28° NNW 18:16:20 20° NNE
Starlink BB 4.2 18:12:40 10° W 18:15:15 28° NNW 18:16:32 20° NNE
Starlink BC 4.2 18:12:54 10° W 18:15:29 28° NNW 18:16:45 20° NNE
ATLAS CENTAUR R/B 4.3 18:10:15 10° W 18:15:40 48° NNW 18:28:23 13° NE
Starlink BK 4.2 18:13:07 10° W 18:15:42 28° NNW 18:16:58 20° NNE
Starlink AY 4.2 18:13:21 10° W 18:15:55 28° NNW 18:17:11 20° NNE
Starlink AW 4.2 18:13:34 10° W 18:16:08 28° NNW 18:17:23 20° NNE
Starlink BJ 4.3 18:13:45 10° W 18:16:19 28° NNW 18:17:34 20° NNE
Starlink AV 4.3 18:13:58 10° W 18:16:32 28° NNW 18:17:47 20° NNE
Starlink BD 4.3 18:14:12 10° W 18:16:46 27° NNW 18:18:00 20° NNE
Starlink BE 4.3 18:14:24 10° W 18:16:59 28° NNW 18:18:13 20° NNE
Starlink BM 4.3 18:14:38 10° W 18:17:12 27° NNW 18:18:25 20° NNE
Starlink AX 4.3 18:14:52 10° W 18:17:26 27° NNW 18:18:38 20° NNE
Starlink BH 4.3 18:15:06 10° W 18:17:39 27° NNW 18:18:51 20° NNE
Starlink AZ 4.3 18:15:19 10° W 18:17:52 27° NNW 18:19:03 20° NNE
Cosmos 2333 Rocket 2.8 18:12:19 10° NNW 18:17:57 60° WSW 18:23:30 10° S
Starlink BG 4.3 18:15:33 10° W 18:18:06 27° NNW 18:19:17 20° NNE
Starlink BF 4.3 18:15:46 10° W 18:18:19 27° NNW 18:19:29 20° NNE
Starlink BL 4.3 18:15:57 10° W 18:18:31 27° NNW 18:19:41 20° NNE
Starlink AH 4.3 18:16:11 10° W 18:18:44 27° NNW 18:19:53 20° NNE
Starlink AC 4.3 18:16:25 10° W 18:18:58 27° NNW 18:20:06 20° NNE
Starlink X 4.3 18:16:37 10° W 18:19:10 27° NNW 18:20:18 20° NNE
Starlink AE 4.3 18:16:51 10° W 18:19:24 27° NNW 18:20:32 21° NNE
Cosmos 962 Rocket 4.4 18:13:23 10° S 18:19:26 69° E 18:25:33 10° NNE
Starlink Z 4.3 18:17:04 10° W 18:19:37 26° NNW 18:20:44 21° NNE
Starlink AK 4.3 18:17:19 10° W 18:19:51 26° NNW 18:20:57 21° NNE
Cosmos 2237 Rocket 2.3 18:14:24 10° NNW 18:19:55 52° ENE 18:25:23 10° SE
Starlink AL 4.3 18:17:32 10° W 18:20:04 26° NNW 18:21:10 21° NNE
Starlink AD 4.3 18:17:44 10° W 18:20:17 26° NNW 18:21:22 21° NNE
Meteor 1-21 Rocket 4.2 18:15:05 10° S 18:20:29 56° E 18:26:01 10° NNE
Starlink Y 4.3 18:18:12 10° W 18:20:44 26° NNW 18:21:48 21° N
Starlink AG 4.4 18:18:25 10° W 18:20:57 26° NNW 18:22:00 21° N
Starlink W 4.4 18:18:37 10° W 18:21:09 26° NNW 18:22:13 21° N
Starlink AJ 4.4 18:18:51 10° W 18:21:23 26° NNW 18:22:25 21° N
COSMO-SKYMED 1 2.7 18:17:18 10° N 18:21:40 79° WNW 18:25:59 10° SSW
Starlink AM 4.4 18:19:17 10° W 18:21:49 26° NNW 18:22:50 21° N
Starlink AP 4.4 18:19:32 10° W 18:22:02 26° NNW 18:23:03 21° N
Cosmos 1461 3.9 18:17:57 10° NW 18:22:12 53° WSW 18:26:35 10° SSE
Starlink AA 4.4 18:19:44 10° W 18:22:15 26° NNW 18:23:16 21° N
Starlink AF 4.4 18:19:58 10° W 18:22:30 26° NNW 18:23:30 21° N
Cosmos 1340 Rocket 2.8 18:18:34 10° NNW 18:22:32 81° W 18:26:30 10° S
Cosmos 1300 3.5 18:18:56 10° NNW 18:22:40 53° W 18:26:22 10° S
Starlink AB 4.4 18:20:12 10° W 18:22:43 25° NNW 18:23:42 21° N
Starlink AN 4.4 18:20:25 10° W 18:22:56 25° NNW 18:23:54 21° N
Okean-O 3.6 18:19:03 10° S 18:23:21 50° W 18:27:41 10° NNW
Cosmos 1953 Rocket 4.2 18:19:23 10° SSE 18:23:26 34° E 18:25:10 25° NE
Nadezhda 3 Rocket 4.3 18:20:38 10° NNW 18:26:53 72° W 18:33:10 10° S
ADEOS Rocket 3.7 18:21:41 10° NNE 18:27:44 39° E 18:34:20 10° SSE
Cosmos 1758 Rocket 3.4 18:24:31 10° S 18:28:47 66° E 18:33:04 10° NNE
CSL-04 Rocket 3.6 18:30:01 10° SSE 18:35:28 80° ENE 18:41:02 10° NNW
ERBS 2.4 18:33:30 10° SSW 18:36:45 54° SE 18:36:50 53° SE
Cosmos 1727 Rocket 4.4 18:31:38 10° N 18:37:16 35° ENE 18:42:52 10° SE
Cosmos 1939 Rocket 2.6 18:34:16 10° SSE 18:38:06 69° ENE 18:42:02 10° N
Cosmos 1455 4.1 18:35:40 10° N 18:36:36 16° NNE 18:36:36 16° NNE
SL-16 R/B 2.9 18:34:47 10° N 18:39:46 30° NE 18:39:50 30° NE
Cosmos 44 4.2 18:36:13 10° S 18:39:36 27° SE 18:39:36 27° SE
Ariane Rocket 3.3 18:37:49 23° ESE 18:40:26 40° ENE 18:45:10 10° N
Cosmos 2219 3.1 18:36:54 10° SSW 18:42:31 89° WNW 18:46:52 18° NNE
H-2A R/B 4.0 18:46:39 12° NNE 18:46:39 12° NNE 18:47:12 10° NNE
Cosmos 2341 Rocket 4.1 18:37:31 10° S 18:43:55 85° W 18:50:20 10° N
Cosmos 1626 4.4 18:41:10 10° SW 18:44:15 25° WNW 18:47:22 10° NNW
NOSS 0 Rocket 4.2 18:38:54 10° NNW 18:45:07 72° WSW 18:51:15 10° SSE
Cosmos 494 Rocket 4.2 18:40:27 10° NNW 18:45:32 68° WSW 18:50:36 10° S
ATLAS 5 CENTAUR R/B 4.2 18:43:35 10° WNW 18:45:56 14° NNW 18:48:26 10° N
SL-8 R/B 4.3 18:41:57 10° SSW 18:46:23 38° SE 18:46:59 36° SE
Cosmos 2082 4.1 18:41:51 10° S 18:46:59 38° ESE 18:47:23 38° E
SL-8 Rocket 3.9 18:43:22 10° S 18:49:41 78° E 18:55:59 10° N
Cosmos 1825 Rocket 3.7 18:50:42 10° SSW 18:55:03 72° W 18:58:40 15° N
Cosmos 2297 Rocket 2.1 18:53:49 10° SSW 18:59:28 88° ESE 19:02:20 31° NNE
Cosmos 1980 3.9 18:56:03 10° NNW 19:01:44 70° WSW 19:07:22 10° SSE
DELTA 2 R/B (1) 3.9 18:57:24 10° WSW 19:02:52 56° S 19:04:00 47° SE
CZ-4 R/B 3.2 19:00:00 10° SSW 19:03:35 32° W 19:07:17 10° NNW
NOSS 2-1 (C) 4.4 19:03:15 10° NNW 19:08:44 73° NE 19:11:34 38° SE
Cosmos 2227 Rocket 2.2 19:05:46 10° SSW 19:11:25 83° WNW 19:13:40 39° NNE
NOSS 2-1 (D) 4.4 19:07:03 10° NNW 19:12:33 77° NE 19:15:24 39° SE
SL-08 R/B 4.4 19:09:49 10° S 19:16:00 69° E 19:19:31 28° NNE
Cosmos 2218 Rocket 4.1 19:12:21 10° SSW 19:18:40 77° W 19:25:05 10° N
Atlas Centaur 2 4.2 19:22:10 10° SSW 19:24:53 16° SSE 19:24:53 16° SSE
FALCON 9 R/B 4.2 19:21:42 10° SW 19:31:53 24° S 19:33:10 23° SSE
ISS -0.4 19:45:20 10° WSW 19:45:24 10° WSW 19:45:24 10° WSW
Cosmos 2237 Rocket 4.3 19:59:15 10° NW 20:03:34 23° W 20:07:53 10° SSW
ADEOS Rocket 4.3 20:07:16 10° N 20:13:12 41° WNW 20:19:44 10° SW
SL-16 R/B 3.8 20:18:41 10° NW 20:21:47 30° WNW 20:21:47 30° WNW
